Regional Weather Roundup
Issued by NWS Cleveland, OH

Home | Current Version | Previous Version | Graphics & Text | Print | Product List | Glossary On
Versions: 1 2 3 4 5 6 7 8 9 10 11 12 13 14 15 16 17 18 19 20 21 22 23 24 25 26 27 28 29 30 31 32 33 34 35 36 37 38 39 40 41 42 43 44 45 46 47 48 49 50
000
ASUS41 KCLE 250702
RWRCLE
OHIO REGIONAL WEATHER ROUNDUP
NATIONAL WEATHER SERVICE CLEVELAND, OH
200 AM EST SAT NOV 25 2017

NOTE: "FAIR" INDICATES FEW OR NO CLOUDS BELOW 12,000 FEET WITH NO
SIGNIFICANT WEATHER AND/OR OBSTRUCTIONS TO VISIBILITY.

OHZ001>008-015>018-024>027-034-035-043-044-250800-
   NORTHWEST OHIO

CITY           SKY/WX    TMP DP  RH WIND       PRES   REMARKS
DEFIANCE       CLOUDY    48  32  53 SW12      29.60R
FINDLAY        CLOUDY    50  29  44 SW21G28   29.61S
TOLEDO EXPRESS PTCLDY    49  33  54 SW13      29.58S
TOLEDO EXEC    PTCLDY    49  32  52 SW17      29.59F
LIMA           PTCLDY    48  31  51 SW12      29.63S
$$

OHZ009>014-019>023-028>033-038-089-250800-
   NORTHEAST OHIO

CITY           SKY/WX    TMP DP  RH WIND       PRES   REMARKS
CLE-HOPKINS    MOCLDY    51  27  39 S14G24    29.63F
CLE-LAKEFRONT  PTCLDY    51  25  36 S17G24    29.60F
CUY CO. ARPT   NOT AVBL
LORAIN-ELYRIA  PTCLDY    50  26  39 SW17      29.62F
ASHTABULA      CLOUDY    49  23  36 S13G21    29.63F
AKRON-CANTON   MOCLDY    50  23  34 SW16      29.68S
WOOSTER        CLOUDY    46  25  43 S13       29.66F
MANSFIELD      CLOUDY    50  28  42 S23G31    29.64F
YOUNGSTOWN     CLOUDY    49  24  37 SW10      29.67F
$$

OHZ042-051>053-060>062-070>072-077>081-250800-
  SOUTHWEST OHIO

CITY           SKY/WX    TMP DP  RH WIND       PRES   REMARKS
CINC-COVINGTON CLOUDY    50  29  44 SW13G23   29.73F
CINC-LUNKEN    CLOUDY    51  30  44 SW15      29.75F
HAMILTON       CLOUDY    52  29  41 SW9       29.73F
DAYTON         CLOUDY    49  28  44 SW16G30   29.69F
WRIGHT-PAT AFB CLOUDY    50  24  36 SW17      29.69F
DAYTON GENERAL MOCLDY    50  27  40 SW13      29.70F
WILMINGTON     MOCLDY    49  30  48 SW22G28   29.71F
$$

OHZ036-037-039>041-045>050-054>059-063>069-073>076-082>088-250800-
  CENTRAL AND SOUTHEAST OHIO

CITY           SKY/WX    TMP DP  RH WIND       PRES   REMARKS
COLUMBUS       MOCLDY    48  27  44 S13       29.71F
OSU AIRPORT    MOCLDY    49  28  44 S12       29.70F
BOLTON FIELD   MOCLDY    47  29  50 SW13      29.71F
RICKENBACK AFB PTCLDY    46  28  50 S12       29.72F
NEWARK         PTCLDY    48  24  39 S8        29.72F
MARION         MOCLDY    47  28  47 SW15      29.66F
LANCASTER      MOCLDY    49  28  44 SW8       29.73F
ZANESVILLE     CLEAR     44  24  45 S7        29.74S
NEW PHILLY     NOT AVBL
$$



USA.gov is the U.S. government's official web portal to all federal, state and local government web resources and services.